TimeCET,TemperatureF,Dew PointF,Humidity,Sea Level PressureIn,VisibilityMPH,Wind Direction,Wind SpeedMPH,Gust SpeedMPH,PrecipitationIn,Events,Conditions,WindDirDegrees,DateUTC
12:00 AM,44.6,32.0,61,29.89,6.2,West,9.2,-,N/A,,Scattered Clouds,280,2013-02-23 23:00:00
12:30 AM,44.6,32.0,61,29.89,6.2,NW,11.5,-,N/A,,Scattered Clouds,310,2013-02-23 23:30:00
1:00 AM,42,29,47,29.90,6,WNW,8.1,,,,Partly Cloudy,290,2013-02-24 00:00:00
1:00 AM,42.8,32.0,66,29.89,6.2,WNW,10.4,-,N/A,,Partly Cloudy,300,2013-02-24 00:00:00
1:30 AM,41.0,32.0,70,29.89,6.2,West,8.1,-,N/A,,Partly Cloudy,280,2013-02-24 00:30:00
2:00 AM,41.0,32.0,70,29.89,6.2,West,9.2,-,N/A,,Partly Cloudy,280,2013-02-24 01:00:00
2:30 AM,42.8,32.0,66,29.89,6.2,WNW,8.1,-,N/A,,Partly Cloudy,290,2013-02-24 01:30:00
3:00 AM,42.8,30.2,61,29.89,6.2,NW,9.2,-,N/A,,Partly Cloudy,320,2013-02-24 02:00:00
3:30 AM,42.8,30.2,61,29.89,6.2,NW,9.2,-,N/A,,Partly Cloudy,320,2013-02-24 02:30:00
4:00 AM,42.8,30.2,61,29.89,6.2,WNW,6.9,-,N/A,,Scattered Clouds,300,2013-02-24 03:00:00
4:30 AM,44.6,28.4,53,29.89,6.2,WNW,10.4,-,N/A,,Scattered Clouds,290,2013-02-24 03:30:00
5:00 AM,42.8,28.4,57,29.89,6.2,NW,6.9,-,N/A,,Scattered Clouds,310,2013-02-24 04:00:00
5:30 AM,42.8,30.2,61,29.89,6.2,WNW,3.5,-,N/A,,Scattered Clouds,290,2013-02-24 04:30:00
6:00 AM,42.8,30.2,61,29.89,6.2,WNW,6.9,-,N/A,,Scattered Clouds,300,2013-02-24 05:00:00
6:30 AM,42.8,30.2,61,29.89,6.2,WNW,6.9,-,N/A,,Scattered Clouds,300,2013-02-24 05:30:00
7:00 AM,41,27,46,29.91,9,NW,8.1,,,,Partly Cloudy,320,2013-02-24 06:00:00
7:00 AM,42.8,30.2,61,29.89,6.2,Variable,1.2,-,N/A,,Scattered Clouds,0,2013-02-24 06:00:00
8:00 AM,41.0,32.0,70,29.89,6.2,SSE,5.8,-,N/A,,Scattered Clouds,150,2013-02-24 07:00:00
8:30 AM,44.6,32.0,61,29.92,6.2,NNW,3.5,-,N/A,,Scattered Clouds,330,2013-02-24 07:30:00
9:00 AM,46.4,33.8,62,29.92,6.2,South,8.1,-,N/A,,Scattered Clouds,180,2013-02-24 08:00:00
9:30 AM,46.4,35.6,66,29.92,6.2,WSW,5.8,-,N/A,,Scattered Clouds,240,2013-02-24 08:30:00
10:00 AM,46.4,33.8,62,29.92,6.2,WNW,8.1,-,N/A,,Mostly Cloudy,290,2013-02-24 09:00:00
10:30 AM,48.2,33.8,58,29.92,6.2,NW,11.5,-,N/A,,Mostly Cloudy,310,2013-02-24 09:30:00
11:00 AM,48.2,33.8,58,29.92,6.2,NW,12.7,-,N/A,,Scattered Clouds,310,2013-02-24 10:00:00
11:30 AM,50.0,33.8,54,29.92,6.2,NW,15.0,-,N/A,,Scattered Clouds,320,2013-02-24 10:30:00
12:00 PM,50.0,33.8,54,29.92,6.2,NW,17.3,-,N/A,,Scattered Clouds,310,2013-02-24 11:00:00
12:30 PM,50.0,33.8,54,29.92,6.2,WNW,15.0,-,N/A,,Mostly Cloudy,300,2013-02-24 11:30:00
1:00 PM,48,30,36,29.92,19,NW,15.0,,,Rain,Light Rain,320,2013-02-24 12:00:00
1:00 PM,48.2,32.0,54,29.92,6.2,NW,15.0,-,N/A,,Mostly Cloudy,310,2013-02-24 12:00:00
1:30 PM,50.0,32.0,50,29.89,6.2,NW,17.3,-,N/A,,Mostly Cloudy,310,2013-02-24 12:30:00
2:00 PM,48.2,32.0,54,29.89,6.2,WNW,13.8,-,N/A,,Mostly Cloudy,300,2013-02-24 13:00:00
2:30 PM,48.2,32.0,54,29.89,6.2,NW,15.0,-,N/A,,Mostly Cloudy,310,2013-02-24 13:30:00
3:00 PM,48.2,32.0,54,29.89,6.2,NW,13.8,-,N/A,Rain,Light Rain,320,2013-02-24 14:00:00
3:30 PM,50.0,32.0,50,29.89,6.2,NW,16.1,27.6,N/A,Rain,Light Rain,320,2013-02-24 14:30:00
4:00 PM,50.0,32.0,50,29.89,6.2,NW,11.5,-,N/A,,Scattered Clouds,320,2013-02-24 15:00:00
4:30 PM,48.2,30.2,50,29.89,6.2,NW,12.7,-,N/A,,Scattered Clouds,310,2013-02-24 15:30:00
5:00 PM,48.2,32.0,54,29.89,6.2,NNW,10.4,-,N/A,,Scattered Clouds,330,2013-02-24 16:00:00
5:30 PM,48.2,32.0,54,29.89,6.2,NW,8.1,-,N/A,,Scattered Clouds,320,2013-02-24 16:30:00
6:00 PM,48.2,32.0,54,29.89,6.2,WNW,5.8,-,N/A,,Scattered Clouds,300,2013-02-24 17:00:00
7:00 PM,44,29,43,29.93,12,West,4.6,,,,Partly Cloudy,270,2013-02-24 18:00:00
7:00 PM,44.6,33.8,66,29.92,6.2,West,4.6,-,N/A,,Scattered Clouds,280,2013-02-24 18:00:00
7:30 PM,44.6,33.8,66,29.92,6.2,WSW,2.3,-,N/A,,Scattered Clouds,250,2013-02-24 18:30:00
8:00 PM,42.8,33.8,70,29.95,6.2,WSW,6.9,-,N/A,,Scattered Clouds,240,2013-02-24 19:00:00
8:30 PM,41.0,35.6,81,29.95,6.2,Variable,1.2,-,N/A,,Scattered Clouds,0,2013-02-24 19:30:00
9:00 PM,44.6,35.6,71,29.95,6.2,Variable,2.3,-,N/A,,Scattered Clouds,0,2013-02-24 20:00:00
9:30 PM,42.8,35.6,76,29.95,6.2,ENE,5.8,-,N/A,,Scattered Clouds,70,2013-02-24 20:30:00
10:00 PM,41.0,37.4,87,29.95,6.2,NE,11.5,-,N/A,Rain,Light Rain,50,2013-02-24 21:00:00
10:30 PM,41.0,37.4,87,29.95,6.2,East,6.9,-,N/A,,Scattered Clouds,100,2013-02-24 21:30:00
11:00 PM,39.2,37.4,93,29.95,6.2,East,6.9,-,N/A,,Scattered Clouds,90,2013-02-24 22:00:00
11:30 PM,39.2,37.4,93,29.95,6.2,NE,3.5,-,N/A,,Scattered Clouds,40,2013-02-24 22:30:00